Flag for Canada Weather past 2 weeks in Kugluktuk, Nunavut, Canada

Now
52 °F

Partly sunny.


Feels Like: 48 °F
Forecast: 42 / 52 °F
Wind: 10 mph from South

Location: Coppermine

Current Time: Sep 3, 2015 at 12:00:47 PM

Latest Report: Sep 3, 2015 at 11:00 AM


Visibility: 15 mi

Pressure: 30.26 "Hg

Humidity: 58%

Dew point: 37 °F

Location of KugluktukLocation

Historic Weather in Kugluktuk — Graph

°F

Kugluktuk temperature yesterday

Maximum temperature yesterday: 48 °F (at 3:00 PM)
Minimum temperature yesterday: 45 °F (at 5:00 AM)
Average temperature yesterday: 46 °F

Past Weeks' High & Low Weather Summary

 TemperatureHumidityPressure
High70 °F (Aug 27, 2:00 PM)100% (Aug 22, 4:00 AM)30.26 "Hg (Aug 22, 4:00 AM)
Low37 °F (Aug 22, 4:00 AM)43% (Aug 27, 2:00 PM)29.33 "Hg (Aug 31, 3:00 AM)
Average49 °F86%29.83 "Hg
* Reported Aug 19 10:00 AM — Sep 3 10:00 AM, Kugluktuk, Weather by CustomWeather, © 2015

Note: Actual official high and low records may vary slightly from our data, if they occured in-between our weather recording intervals... More about our weather records

Advertising

Kugluktuk weather history for previous 24 hours

 ConditionsComfort  
Time TempWeatherWind HumidityBarometerVisibility
10:00 AM
Thu, Sep 3
50 °FPassing clouds.8 mph58%30.26 "Hg15 mi
9:00 AM48 °FScattered clouds.9 mph66%30.25 "Hg15 mi
8:00 AM48 °FPassing clouds.8 mph71%30.25 "Hg15 mi
7:00 AM46 °FPassing clouds.7 mph76%30.24 "Hg15 mi
6:00 AM45 °FPassing clouds.8 mph81%30.22 "Hg15 mi
5:00 AM46 °FPassing clouds.6 mph82%30.22 "Hg15 mi
4:00 AM46 °FPassing clouds.8 mph82%30.20 "Hg15 mi
3:00 AM48 °FPassing clouds.7 mph71%30.20 "Hg15 mi
2:00 AM46 °FPassing clouds.7 mph82%30.19 "Hg15 mi
1:00 AM45 °FPassing clouds.7 mph93%30.18 "Hg15 mi
12:00 AM45 °FPassing clouds.10 mph93%30.17 "Hg15 mi
11:00 PM
Wed, Sep 2
45 °FPartly sunny.10 mph87%30.16 "Hg15 mi
10:00 PM46 °FPartly sunny.10 mph87%30.15 "Hg15 mi
9:00 PM46 °FPartly sunny.15 mph87%30.14 "Hg15 mi
8:00 PM46 °FScattered showers. Partly sunny.15 mph87%30.12 "Hg15 mi
7:00 PM48 °FScattered showers. Partly sunny.17 mph82%30.11 "Hg15 mi
6:00 PM48 °FScattered showers. Partly sunny.13 mph82%30.10 "Hg15 mi
5:00 PM48 °FPartly sunny.17 mph82%30.09 "Hg15 mi
4:00 PM48 °FScattered showers. More clouds than sun.16 mph82%30.07 "Hg15 mi
3:00 PM48 °FBroken clouds.16 mph82%30.06 "Hg15 mi
2:00 PM46 °FPartly sunny.21 mph87%30.04 "Hg15 mi
1:00 PM46 °FMostly cloudy.22 mph87%30.03 "Hg15 mi
12:00 PM46 °FMostly cloudy.16 mph87%30.03 "Hg15 mi
Weather by CustomWeather, © 2015

See weather overviewHow to use our weather pages